Tracking 28792 objects as of 25-Apr-2024
HD Live streaming from Space Station
objects crossing your sky now

APRIZESAT 5

Track APRIZESAT 5 now!
10-day predictions
APRIZESAT 5 is classified as:


NORAD ID: 37792
Int'l Code: 2011-044E
Perigee: 604.8 km
Apogee: 683.1 km
Inclination: 98.2 °
Period: 97.5 minutes
Semi major axis: 7014 km
RCS: 0.107 m2 (medium)
Launch date: August 17, 2011
Source: United States (US)
Launch site: Orenburg, Russia (OREN)

Uplink (MHz):
Downlink (MHz):
Beacon (MHz):
Mode:
Call sign:
Status: Unknown

Your satellite tracking list
Your tracking list is empty




NASA's NSSDC Master Catalog

Two Line Element Set (TLE):
1 37792U 11044E   24115.70476207  .00003534  00000-0  48931-3 0  9997
2 37792  98.2475  18.3419 0055769   2.3948 357.7518 14.77624637682930
Source of the keplerian elements: AFSPC